Regional Weather Roundup
Issued by NWS

Home | Current Version | Previous Version | Graphics & Text | Print | Product List | Glossary On
Versions: 1 2 3 4 5 6 7 8 9 10 11 12 13 14 15 16 17 18 19 20 21 22 23 24 25 26 27 28 29 30 31 32 33 34 35 36 37 38 39 40 41 42 43 44 45 46 47 48 49 50
000
ASUS45 KABQ 201001
RWRNM
NEW MEXICO REGIONAL WEATHER ROUNDUP
NATIONAL WEATHER SERVICE ALBUQUERQUE NM
400 AM MDT FRI OCT 20 2017

NOTE: "FAIR" MEANS FEW OR NO CLOUDS BELOW 12,000 FEET AGL WITH NO
       SIGNIFICANT WEATHER OR OBSTRUCTIONS TO VISION.

      THIS PRODUCT IS RELEASED AS TWO VERSIONS.  ONE VERSION NEAR
      THE TOP OF THE HOUR CONTAINING PRELIMINARY DATA FROM ALBUQUERQUE
      AND OTHER STATIONS.  A FINAL VERSION WITH ADDITIONAL DATA IS
      ISSUED ABOUT 10 MINUTES AFTER THE HOUR.

NMZ501-503-504-510>518-201100-
NORTHWEST PLATEAU/NORTHCENTRAL MOUNTAINS

CITY           SKY/WX    TMP DP  RH WIND       PRES   REMARKS
FARMINGTON     FAIR      50  36  58 E9        29.97F
LOS ALAMOS     CLOUDY    50  40  68 S5        30.07F
SANTA FE       FAIR      50  45  83 SW9       30.05F
TAOS           CLOUDY    47  36  65 NW3       30.09F
ANGEL FIRE     FAIR      30  28  93 CALM      30.11F

$$
NMZ402-403-502-505>509-201100-
WESTCENTRAL MOUNTAINS/SOUTHWEST MOUNTAINS

CITY           SKY/WX    TMP DP  RH WIND       PRES   REMARKS
GALLUP         FAIR      38  34  85 CALM      30.05F
GRANTS         FAIR      38  37  99 CALM      30.09F
SILVER CITY    FAIR      43  39  86 N3        30.09S

$$
NMZ407-409-411-412-201100-
SOUTHERN DESERTS

CITY           SKY/WX    TMP DP  RH WIND       PRES   REMARKS
DEMING         FAIR      51  49  92 N6        30.04F
LAS CRUCES     FAIR      54  51  92 CALM      30.06S
ALAMOGORDO     FAIR      50  50 100 SE5       30.05S
T OR C         MOCLDY    53  49  86 W9        30.03F

$$
NMZ519>523-201100-
CENTRAL VALLEYS/CENTRAL HIGHLANDS

CITY           SKY/WX    TMP DP  RH WIND       PRES   REMARKS
ALBUQUERQUE    FAIR      51  49  92 E5        30.04F
DOUBLE EAGLE   FAIR      41  40  97 CALM      30.06S
MORIARTY ARPT  MOCLDY    47  43  88 CALM      30.08S
CLINES CORNERS FAIR      43  40  89 W12       30.09F
BELEN          FAIR      50  48  93 CALM      30.03F
SOCORRO        FAIR      50  48  93 S7        30.02F

$$
NMZ524>526-539-540-201100-
SOUTHCENTRAL MOUNTAINS

CITY           SKY/WX    TMP DP  RH WIND       PRES   REMARKS
RUIDOSO        FAIR      48  41  76 NW3       30.12F

$$
NMZ527>531-201100-
NORTHEAST HIGHLANDS/NORTHEAST PLAINS

CITY           SKY/WX    TMP DP  RH WIND       PRES   REMARKS
LAS VEGAS      FAIR      45  38  76 S12       30.01F
RATON          FAIR      41  38  89 CALM      29.97F
CLAYTON        FAIR      49  49 100 SW13      29.91F

$$
NMZ532>537-201100-
EASTCENTRAL PLAINS

CITY           SKY/WX    TMP DP  RH WIND       PRES   REMARKS
SANTA ROSA     FAIR      51  49  92 S8        29.99S
TUCUMCARI      FAIR      56  51  84 S9        29.93S
CANNON AFB     CLOUDY    57  57 100 SW14      30.01R
CLOVIS AIRPORT MOCLDY    55  52  89 S17       29.99F

$$
NMZ028-029-538-201100-
SOUTHEAST PLAINS

CITY           SKY/WX    TMP DP  RH WIND       PRES   REMARKS
ROSWELL        FAIR      57  56  96 S9        29.99F
ARTESIA        FAIR      57  57 100 S16G23    29.99R
CARLSBAD       MOCLDY    58  58 100 S14       30.00R
HOBBS          LGT RAIN  57  55  94 CALM      30.06F


$$



USA.gov is the U.S. government's official web portal to all federal, state and local government web resources and services.